Regional Weather Roundup
Issued by NWS State College, PA

Home | Current Version | Previous Version | Text Only | Print | Product List | Glossary On
Versions: 1 2 3 4 5 6 7 8 9 10 11 12 13 14 15 16 17 18 19 20 21 22 23 24 25 26 27 28 29 30 31 32 33 34 35 36 37 38 39 40 41 42 43 44 45 46 47 48 49 50
000
ASUS41 KCTP 192010
RWRCTP

REGIONAL WEATHER ROUNDUP
NATIONAL WEATHER SERVICE STATE COLLEGE PA
300 PM EST THU JAN 19 2017

Note: "fair" indicates few or no clouds below 12,000 feet with no
significant weather and/or obstructions to visibility.

* = STATION THAT DOES NOT REPORT PRECIPITATION /E.G. RAIN...SNOW...ETC/
    THUNDER OR FOG.

PAZ002>004-007>009-013>016-020>023-029>032-192100-
WESTERN PENNSYLVANIA

CITY           SKY/WX    TMP DP  RH WIND       PRES   REMARKS
ERIE           CLOUDY    36  33  89 N3        30.01S FOG
MEADVILLE      CLOUDY    38  33  82 CALM      29.98F
FRANKLIN*        N/A     37  32  81 SE3       29.98F
NEW CASTLE     CLOUDY    41  35  79 SW8       30.02S
BEAVER COUNTY  CLOUDY    39  34  81 MISG      30.01R
BUTLER*        CLOUDY    41  34  75 S6        30.03S
PITTSBURGH INT CLOUDY    41  35  79 SW6       30.01S
PITTSBURGH     CLOUDY    41  32  70 S7        30.01R
INDIANA*       CLOUDY    41  36  81 E5        30.01F
LATROBE        PTSUNNY   43  36  75 CALM      30.00F
WASHINGTON CO* CLOUDY    43  34  70 S6        30.03R
$$

PAZ004>006-010>012-017>019-024>028-033>037-041-042-045-046-049>053-192100-
CENTRAL PENNSYLVANIA

CITY           SKY/WX    TMP DP  RH WIND       PRES   REMARKS
BRADFORD       CLOUDY    35  34  96 SW5       29.95F
DUBOIS         CLOUDY    37  31  78 SE3       29.96F
CLEARFIELD     CLOUDY    39  34  82 CALM      29.99S
JOHNSTOWN      CLOUDY    41  34  76 CALM      29.95F
ALTOONA        CLOUDY    44  35  70 CALM      29.99F
STATE COLLEGE  CLOUDY    39  32  75 CALM      30.00F
WILLIAMSPORT   CLOUDY    47  33  58 VRB6      29.99F
SELINSGROVE    CLOUDY    47  35  63 N3        30.01F
FT INDIANTOWN  CLOUDY    47  35  63 NW5       30.00F
CAPITAL CITY   CLOUDY    50  33  52 CALM      30.00F
HARRISBURG     CLOUDY    49  35  58 W3        29.99F
YORK           CLOUDY    49  36  61 SW3       29.99F
$$

PAZ038>040-043-044-047-048-054-055-060>062-067>071-192100-
EASTERN PENNSYLVANIA

CITY           SKY/WX    TMP DP  RH WIND       PRES   REMARKS
SCRANTON       CLOUDY    40  34  79 NW6       29.99F
MOUNT POCONO   CLOUDY    35  30  82 N6        29.95F
ALLENTOWN      CLOUDY    46  33  60 NW6       30.01F
QUAKERTOWN*    CLOUDY    45  34  65 N5        30.01F
READING        CLOUDY    47  36  65 N7        30.00S
LANCASTER      CLOUDY    47  36  65 NW6       30.00F
COATESVILLE    CLOUDY    45  36  70 VRB3      30.01F
POTTSTOWN      CLOUDY    45  34  65 CALM      30.02F
BLUE BELL      CLOUDY    43  34  70 CALM      30.01S
DOYLESTOWN     CLOUDY    45  35  68 NW10      30.00F
WILLOW GROVE   NOT AVBL
NORTH PHILA    CLOUDY    46  35  65 NW10      30.03F
PHILADELPHIA   CLOUDY    47  35  63 N9G21     30.02F
$$




USA.gov is the U.S. government's official web portal to all federal, state and local government web resources and services.